Date,TemperatureHighF,TemperatureAvgF,TemperatureLowF,DewpointHighF,DewpointAvgF,DewpointLowF,HumidityHigh,HumidityAvg,HumidityLow,PressureMaxIn,PressureMinIn,WindSpeedMaxMPH,WindSpeedAvgMPH,GustSpeedMaxMPH,PrecipitationSumIn
2013-1-1,26.1,23.3,14.4,20.6,18.0,10.1,90,80,70,30.53,30.42,8,1,8,0.00
2013-1-2,29.8,23.7,14.9,21.3,16.6,9.0,85,75,56,30.53,30.42,8,1,8,0.00
2013-1-3,28.8,19.4,13.3,20.0,12.4,8.0,83,74,59,30.42,30.30,14,5,14,0.00
2013-1-4,30.7,25.9,15.4,26.7,20.3,11.5,92,80,66,30.36,30.33,6,1,9,0.00
2013-1-5,34.3,30.7,27.5,26.9,25.3,23.3,91,81,69,30.36,30.18,15,7,17,0.00
2013-1-6,32.5,30.3,27.9,29.9,27.2,24.3,96,88,73,30.18,30.06,10,2,13,0.00
2013-1-7,38.5,34.5,30.7,37.6,33.2,29.5,98,95,79,30.06,29.85,15,3,19,0.56
2013-1-8,46.6,35.5,30.4,40.5,32.1,25.3,98,88,60,30.12,29.88,22,4,28,0.12
2013-1-9,48.7,42.9,34.5,33.9,30.6,26.5,79,62,44,29.88,29.65,28,10,30,0.00
2013-1-10,34.5,30.4,26.8,28.2,25.1,22.3,94,81,73,29.88,29.80,11,4,15,0.00
2013-1-11,34.3,24.0,9.5,25.1,11.1,-1.2,94,59,41,30.21,29.88,11,3,13,0.00
2013-1-12,31.1,18.9,9.7,18.6,11.7,-1.0,84,73,50,30.30,30.18,8,1,8,0.00
2013-1-13,33.3,20.4,13.1,17.3,11.0,5.0,83,68,44,30.39,30.27,7,1,8,0.00
2013-1-14,25.9,22.5,18.9,20.7,17.3,12.0,88,80,74,30.42,30.27,6,0,6,0.00
2013-1-15,32.5,25.9,13.8,26.1,21.1,10.4,91,82,70,30.56,30.42,0,0,0,0.00
2013-1-16,36.1,22.7,11.8,26.0,18.5,7.7,96,85,58,30.53,30.50,5,0,6,0.00
2013-1-17,24.3,21.4,13.1,23.0,19.5,8.9,96,93,83,30.53,30.36,3,0,3,0.00
2013-1-18,27.1,17.8,9.5,21.5,14.2,4.9,95,86,73,30.36,30.24,0,0,0,0.00
2013-1-19,36.3,21.3,11.1,26.0,15.8,6.4,91,79,56,30.42,30.33,0,0,0,0.08
2013-1-20,37.9,22.3,13.5,22.4,16.1,8.9,92,79,50,30.47,30.39,0,0,0,0.00
2013-1-21,25.5,20.9,15.3,23.5,18.7,12.6,94,91,88,30.39,30.27,0,0,0,0.00
2013-1-22,28.2,22.1,17.6,24.2,19.6,15.9,95,90,81,30.30,30.15,0,0,0,0.00
2013-1-23,35.8,30.1,24.1,34.5,25.6,20.3,98,84,62,30.15,29.94,24,2,25,0.16
2013-1-24,44.4,31.3,26.1,31.7,26.7,21.0,96,83,51,30.24,30.06,11,3,13,0.08
2013-1-25,37.9,35.5,32.5,37.4,35.0,31.7,98,98,96,30.15,29.91,6,1,8,0.76
2013-1-26,38.5,35.2,32.9,36.9,32.7,28.3,98,91,68,29.97,29.88,13,4,15,0.04
2013-1-27,33.4,31.5,29.1,30.1,27.9,25.5,94,86,77,30.00,29.94,10,4,12,0.00
2013-1-28,33.6,30.8,28.0,32.3,28.8,25.0,98,92,84,29.94,29.85,12,2,14,0.00
2013-1-29,35.1,32.0,28.6,32.0,28.9,26.4,98,89,74,30.18,29.88,9,2,9,0.00
2013-1-30,42.6,36.0,32.5,39.3,34.2,31.8,98,93,78,30.24,30.09,13,3,14,0.24
2013-1-31,41.7,37.3,34.7,39.6,35.8,34.2,98,95,80,30.27,30.15,13,2,13,0.04
2013-2-1,48.7,36.5,27.5,38.0,32.3,24.7,98,86,54,30.45,30.18,8,1,10,0.00
2013-2-2,35.2,30.5,27.3,34.7,30.0,25.8,98,98,91,30.47,30.24,8,2,10,0.00
2013-2-3,39.7,32.0,27.0,39.2,31.1,26.5,98,96,88,30.24,30.09,0,0,0,0.00
2013-2-4,47.3,36.6,29.5,35.7,31.9,26.4,98,84,55,30.12,30.00,13,4,17,0.00
2013-2-5,43.9,37.2,30.6,37.9,33.3,29.8,98,86,60,30.00,29.83,13,4,18,0.00
2013-2-6,47.8,38.9,33.1,32.8,30.3,26.9,86,72,48,30.06,29.94,14,6,20,0.00
2013-2-7,40.1,36.3,34.0,38.5,33.5,29.8,97,89,80,30.03,29.91,12,3,13,0.12
2013-2-8,39.6,34.9,30.7,35.5,31.9,26.6,98,89,62,30.12,30.03,9,3,10,0.00
2013-2-9,36.1,32.2,25.5,30.7,27.2,22.1,91,82,67,30.18,30.03,10,2,11,0.00
2013-2-10,35.6,30.3,24.8,32.1,26.0,21.8,98,84,69,30.27,30.18,6,1,8,0.00
2013-2-11,45.9,34.7,26.6,32.1,27.4,23.4,94,76,46,30.21,30.15,10,1,12,0.00
2013-2-12,44.6,38.4,33.8,36.2,31.1,28.0,85,75,56,30.27,30.15,16,6,18,0.00
2013-2-13,52.5,40.0,26.4,36.8,28.4,21.0,88,66,36,30.33,30.15,17,4,19,0.00
2013-2-14,46.8,32.3,21.9,30.4,24.3,17.5,92,74,45,30.50,30.33,10,1,10,0.00
2013-2-15,57.2,36.0,24.3,37.6,27.2,21.9,98,74,37,30.50,30.27,6,0,6,0.00
2013-2-16,47.1,36.6,27.0,40.6,31.7,24.2,96,83,60,30.27,29.91,17,5,17,0.00
2013-2-17,48.9,38.2,29.5,31.3,25.4,21.1,93,62,37,30.09,29.94,16,5,17,0.00
2013-2-18,44.1,35.2,24.4,29.4,23.3,20.8,90,64,41,30.09,29.80,14,4,15,0.00
2013-2-19,39.6,34.8,31.6,34.1,30.1,24.5,91,83,64,29.88,29.74,10,2,11,0.00
2013-2-20,42.8,33.2,23.2,31.8,26.2,18.8,93,77,46,30.00,29.88,11,3,12,0.00
2013-2-21,35.2,30.5,21.2,34.0,28.0,17.8,98,90,80,30.03,29.97,11,2,13,0.08
2013-2-22,39.7,35.9,33.6,35.5,31.8,24.8,94,85,64,30.00,29.65,23,9,25,0.16
2013-2-23,47.7,35.1,24.6,27.7,23.0,18.7,87,63,37,30.21,29.71,17,7,19,0.00
2013-2-24,39.2,31.7,21.0,29.7,23.1,18.0,90,72,51,30.30,30.06,15,3,17,0.00
2013-2-25,42.6,36.8,33.4,35.0,26.5,19.1,96,67,49,30.09,29.91,22,7,22,0.24
2013-2-26,42.4,34.7,27.5,27.1,22.7,19.7,84,63,42,30.30,30.09,13,5,17,0.00
2013-2-27,48.0,38.1,32.2,27.9,24.9,22.2,77,60,41,30.27,30.18,13,4,15,0.00
2013-2-28,45.5,38.2,32.2,39.2,34.8,25.8,98,88,61,30.36,30.24,6,1,8,0.12
2013-3-1,53.1,45.9,38.1,45.9,40.5,37.0,98,82,66,30.36,30.27,17,5,23,0.00
2013-3-2,55.2,46.3,36.0,46.8,37.6,34.6,98,75,47,30.30,29.91,21,4,26,0.00
2013-3-3,47.5,40.2,31.8,37.1,19.3,15.4,69,44,31,30.18,29.88,22,8,24,0.00
2013-3-4,53.8,36.7,25.3,25.2,18.5,12.2,84,51,27,30.27,30.09,13,4,15,0.00
2013-3-5,42.8,36.1,29.5,28.5,19.5,13.6,75,52,38,30.09,29.85,19,10,20,0.00
2013-3-6,46.9,37.9,34.7,37.6,30.1,22.0,96,74,54,29.85,29.62,17,10,20,0.04
2013-3-7,42.4,36.4,28.8,37.2,32.9,26.7,98,88,63,30.06,29.85,14,5,15,0.32
2013-3-8,48.9,34.8,28.6,35.6,31.0,26.8,98,87,54,30.12,30.03,9,2,9,0.00
2013-3-9,56.7,38.3,27.7,42.6,27.9,22.2,98,73,30,30.39,30.12,13,1,13,0.00
2013-3-10,47.5,35.5,24.6,35.3,28.2,22.1,97,77,42,30.39,30.24,13,3,15,0.00
2013-3-11,55.4,40.2,28.6,38.2,27.0,19.0,98,66,28,30.30,30.21,10,2,12,0.00
2013-3-12,53.2,43.0,35.4,47.2,36.3,25.7,98,78,57,30.24,30.06,20,5,21,0.12
2013-3-13,57.9,50.9,45.1,44.2,39.9,37.3,89,67,46,30.21,30.09,13,3,17,0.08
2013-3-14,63.9,51.4,40.5,45.2,38.9,30.0,94,65,37,30.15,30.00,17,5,20,0.00
2013-3-15,58.8,49.1,37.0,41.2,34.9,29.6,85,59,36,30.15,30.03,15,6,20,0.00
2013-3-16,52.5,43.6,35.8,39.8,35.2,26.7,95,74,47,30.06,29.71,24,7,30,0.08
2013-3-17,48.2,38.1,32.2,31.5,21.6,15.2,83,53,32,30.00,29.74,22,10,24,0.00
2013-3-18,43.0,34.3,26.8,30.6,23.5,15.7,82,65,45,30.18,29.97,24,7,26,0.00
2013-3-19,50.9,37.1,23.2,32.2,23.7,17.9,98,64,29,30.27,29.85,17,6,18,0.00
2013-3-20,53.8,42.3,37.0,47.7,36.7,24.2,98,82,52,29.85,29.53,27,9,69,0.52
2013-3-21,41.9,35.3,29.3,29.7,22.5,16.8,79,61,39,30.03,29.80,23,9,29,0.00
2013-3-22,47.5,33.1,23.2,27.5,21.2,16.1,89,65,31,30.24,30.00,13,2,15,0.00
2013-3-23,47.5,32.6,20.8,26.3,19.7,16.2,90,62,32,30.33,30.24,13,2,16,0.00
2013-3-24,53.8,35.8,22.6,24.5,18.5,12.1,85,55,26,30.33,30.18,13,3,14,0.00
2013-3-25,57.9,38.8,23.7,26.2,20.3,13.8,71,50,28,30.18,30.00,17,5,17,0.00
2013-3-26,63.0,43.7,27.7,29.8,25.5,21.1,78,52,28,30.03,29.94,13,4,15,0.00
2013-3-27,59.4,46.0,33.8,37.3,32.3,25.9,82,60,41,30.00,29.97,13,4,14,0.00
2013-3-28,64.6,47.5,34.3,44.7,37.1,32.3,95,71,34,30.09,30.00,9,2,11,0.00
2013-3-29,64.9,48.8,34.2,43.8,34.9,27.8,98,65,29,30.21,30.09,11,3,17,0.00
2013-3-30,69.8,49.8,30.9,38.1,32.8,28.3,94,58,25,30.30,30.15,10,2,11,0.00
2013-3-31,75.6,52.3,33.4,38.9,34.1,30.1,92,57,23,30.15,29.94,14,2,14,0.00
2013-4-1,76.1,55.2,37.6,38.0,34.6,30.7,84,52,22,30.00,29.94,14,4,17,0.00
2013-4-2,66.6,52.2,37.6,42.7,37.4,34.0,89,61,34,30.12,30.00,17,4,20,0.00
2013-4-3,67.5,51.8,38.1,42.5,37.1,32.9,94,62,31,30.15,30.03,12,2,14,0.00
2013-4-4,57.2,48.4,39.9,50.2,42.3,35.7,98,81,46,30.03,29.77,17,5,17,0.12
2013-4-5,57.9,51.0,47.8,47.3,41.5,36.3,83,70,48,29.88,29.83,24,8,26,0.04
2013-4-6,57.0,49.4,45.1,43.9,36.3,27.2,89,62,35,29.88,29.83,26,6,29,0.00
2013-4-7,53.4,44.1,40.3,43.7,35.4,28.5,96,73,51,29.85,29.59,25,7,28,0.12
2013-4-8,50.9,40.9,33.4,36.2,29.8,23.7,95,67,38,30.24,29.80,16,6,20,0.00
2013-4-9,58.8,44.5,30.2,36.2,28.4,24.6,83,57,31,30.33,30.21,10,3,12,0.00
2013-4-10,58.8,48.3,42.1,49.3,37.2,31.8,91,67,37,30.21,29.83,23,5,30,0.16
2013-4-11,55.6,45.3,37.4,33.6,29.2,24.6,83,55,33,30.12,30.03,17,6,19,0.00
2013-4-12,57.7,42.9,31.3,39.0,30.6,24.0,98,67,32,30.09,29.65,23,5,28,0.20
2013-4-13,52.2,41.2,30.0,40.4,24.5,18.1,97,54,29,29.83,29.59,30,9,30,0.00
2013-4-14,54.1,39.1,28.8,30.4,26.8,22.5,83,63,36,29.94,29.83,10,3,15,0.00
2013-4-15,52.2,40.7,31.1,27.9,17.8,13.4,77,41,29,30.12,29.88,24,10,28,0.00
2013-4-16,51.1,38.6,25.9,18.4,14.9,9.4,59,39,27,30.33,30.12,23,7,26,0.00
2013-4-17,57.7,41.9,23.7,22.2,17.9,13.9,72,41,25,30.39,30.27,16,4,25,0.00
2013-4-18,56.5,44.8,27.3,37.2,26.1,17.0,76,50,35,30.33,30.18,15,4,17,0.00
2013-4-19,54.5,48.2,44.4,49.9,44.4,36.4,98,88,63,30.18,29.91,23,7,23,0.56
2013-4-20,60.1,50.1,40.5,41.6,33.8,26.8,85,57,35,30.09,29.94,25,10,32,0.00
2013-4-21,51.8,42.0,34.7,39.6,33.5,27.6,97,73,47,30.27,30.06,14,5,18,0.28
2013-4-22,57.6,41.8,29.3,32.5,22.8,17.2,86,51,26,30.45,30.27,15,5,20,0.00
2013-4-23,63.0,38.7,25.3,30.8,25.7,20.8,91,64,25,30.36,30.21,6,1,9,0.00
2013-4-24,64.8,48.4,28.2,33.4,28.6,25.1,90,52,26,30.30,30.00,17,4,17,0.00
2013-4-25,72.3,54.2,34.5,38.1,32.2,28.5,87,49,23,30.06,29.94,16,3,17,0.00
2013-4-26,75.0,58.2,38.7,41.4,36.5,33.3,85,49,24,30.18,30.06,13,4,18,0.00
2013-4-27,62.8,57.1,47.7,38.0,32.6,28.1,68,40,29,30.12,29.97,23,9,30,0.00
2013-4-28,62.1,54.6,46.9,37.4,32.6,25.9,66,44,29,30.09,29.85,24,10,28,0.00
2013-4-29,58.3,49.9,42.8,35.8,24.6,15.0,68,39,25,29.94,29.74,26,11,31,0.00
2013-4-30,54.1,43.1,32.0,27.1,21.3,15.0,70,43,31,30.33,29.94,14,5,19,0.00
2013-5-1,63.1,45.6,25.3,31.4,24.8,20.1,88,50,24,30.56,30.33,10,2,12,0.00
2013-5-2,72.7,53.0,30.6,35.1,29.2,24.4,81,45,22,30.59,30.27,10,2,11,0.00
2013-5-3,73.4,60.1,49.3,39.0,35.7,32.2,62,42,25,30.27,30.18,14,3,16,0.00
2013-5-4,75.2,60.4,43.7,40.7,34.2,27.0,77,42,22,30.30,30.09,21,7,23,0.00
2013-5-5,83.3,62.6,43.3,38.3,33.1,29.0,60,36,20,30.12,29.88,16,5,20,0.00
2013-5-6,88.3,65.1,44.1,42.2,37.6,32.9,72,41,18,29.94,29.77,15,4,17,0.00
2013-5-7,90.0,66.2,44.2,44.0,40.1,37.0,82,45,18,29.91,29.83,13,3,15,0.00
2013-5-8,88.7,70.6,51.4,50.5,42.8,38.0,69,41,20,30.03,29.94,11,4,12,0.00
2013-5-9,90.3,69.5,50.5,53.0,45.0,37.5,87,48,18,30.12,30.03,9,2,15,0.00
2013-5-10,90.7,69.8,49.1,49.6,44.3,38.6,83,46,19,30.18,30.09,13,2,15,0.00
2013-5-11,88.0,69.7,51.8,50.6,46.3,39.4,85,49,21,30.15,30.03,13,2,17,0.00
2013-5-12,82.6,67.5,54.1,52.4,47.9,43.6,84,53,29,30.06,29.97,17,4,22,0.00
2013-5-13,65.8,58.0,49.5,53.7,46.9,32.9,97,68,49,30.06,29.97,17,6,25,0.60
2013-5-14,65.5,52.2,40.1,38.6,32.8,27.7,78,50,28,30.18,30.06,14,2,17,0.00
2013-5-15,68.9,54.2,36.7,42.9,35.7,31.3,95,56,26,30.12,29.94,11,2,12,0.00
2013-5-16,66.6,56.1,47.7,48.6,44.9,39.8,88,68,42,29.97,29.91,9,1,10,0.00
2013-5-17,73.9,56.1,43.3,50.8,44.8,38.6,97,72,31,29.97,29.85,17,4,22,0.55
2013-5-18,59.4,53.4,48.4,52.7,44.4,40.4,98,73,51,30.15,29.97,15,3,16,0.00
2013-5-19,69.6,56.8,48.4,47.8,43.8,40.0,92,64,36,30.27,30.15,10,2,13,0.00
2013-5-20,77.4,60.2,42.6,50.6,45.5,39.9,98,64,30,30.30,29.94,9,1,11,0.00
2013-5-21,78.8,56.5,45.1,49.6,44.2,37.1,98,68,26,29.94,29.62,26,7,44,0.16
2013-5-22,50.9,43.9,38.8,45.7,37.9,32.0,98,81,51,30.03,29.83,16,5,18,0.12
2013-5-23,66.0,49.5,34.9,41.2,35.4,31.5,98,64,30,30.03,29.94,8,2,15,0.00
2013-5-24,57.6,49.3,36.3,42.6,38.3,34.2,94,67,44,30.03,29.97,15,6,17,0.00
2013-5-25,65.1,52.3,39.6,45.8,39.7,33.2,94,66,34,30.03,30.00,10,2,12,0.00
2013-5-26,75.4,58.4,39.6,43.3,39.7,35.2,93,55,26,30.03,29.91,15,5,15,0.00
2013-5-27,68.7,58.6,52.5,50.0,44.7,37.9,88,63,34,29.97,29.83,13,2,13,0.00
2013-5-28,65.7,56.1,50.4,52.0,48.9,43.7,97,78,49,29.88,29.83,11,2,14,0.04
2013-5-29,66.7,53.7,43.9,51.2,46.1,40.7,98,77,40,29.91,29.74,21,4,21,0.12
2013-5-30,58.8,51.5,44.4,51.3,44.5,38.7,96,78,48,30.15,29.91,14,5,18,0.24
2013-5-31,70.0,55.0,38.8,46.2,39.7,34.7,98,62,30,30.27,30.15,13,2,19,0.00
2013-6-1,73.6,58.0,41.4,45.4,40.2,34.1,93,57,26,30.27,30.03,11,3,13,0.00
2013-6-2,61.7,52.6,45.9,54.3,47.0,41.3,98,82,55,30.00,29.94,8,1,10,0.40
2013-6-3,73.2,58.1,44.8,55.8,46.1,39.7,98,70,33,30.09,29.97,13,3,17,0.00
2013-6-4,79.2,63.4,47.5,52.8,45.2,37.8,94,57,24,30.18,30.09,14,2,15,0.00
2013-6-5,82.8,66.5,46.4,52.6,46.9,43.6,92,55,29,30.09,29.97,12,2,14,0.00
2013-6-6,85.5,70.2,54.9,56.7,50.7,46.0,90,55,29,30.03,29.94,11,2,12,0.00
2013-6-7,81.9,68.6,55.8,54.4,46.1,37.1,91,49,24,29.97,29.85,20,8,26,0.00
2013-6-8,79.3,65.7,50.7,45.2,39.1,35.7,62,40,23,30.09,29.94,14,4,17,0.00
2013-6-9,77.4,64.0,48.2,45.1,38.8,31.2,83,44,21,29.97,29.88,15,6,20,0.00
2013-6-10,79.9,62.3,41.0,47.7,39.3,34.8,86,48,22,29.91,29.80,9,2,12,0.00
2013-6-11,71.8,59.2,42.8,45.6,38.4,30.0,86,49,27,30.03,29.83,17,5,20,0.00
2013-6-12,71.1,58.1,47.3,42.4,38.0,34.4,74,49,32,30.09,30.00,14,2,14,0.00
2013-6-13,71.4,56.4,43.9,47.3,40.4,34.7,84,58,29,30.09,30.03,15,5,25,0.00
2013-6-14,68.5,55.7,40.3,43.7,39.7,34.8,95,59,33,30.18,30.09,15,5,17,0.00
2013-6-15,82.9,62.9,39.2,47.4,41.0,36.0,95,52,22,30.09,29.97,13,3,14,0.00
2013-6-16,86.7,68.1,49.3,51.2,43.8,37.1,78,47,20,30.06,29.97,13,4,15,0.00
2013-6-17,85.8,70.9,58.8,56.7,49.0,45.4,74,48,26,30.03,29.85,11,2,14,0.00
2013-6-18,69.3,62.6,56.8,59.0,52.0,44.8,98,71,45,29.97,29.85,15,4,27,0.24
2013-6-19,57.7,53.9,50.4,56.1,51.6,44.6,98,93,64,29.91,29.83,15,3,16,0.28
2013-6-20,50.4,49.1,47.7,49.8,48.5,47.1,98,98,98,30.09,29.83,20,6,20,1.52
2013-6-21,64.9,55.0,48.6,56.5,48.6,43.5,98,81,48,30.12,30.06,10,1,10,0.12
2013-6-22,68.2,57.3,45.9,53.8,48.1,43.1,98,74,41,30.12,30.00,8,1,10,0.00
2013-6-23,78.6,63.9,46.9,55.8,48.2,42.4,96,62,29,30.00,29.68,11,4,11,0.00
2013-6-24,66.7,60.6,55.4,61.0,55.8,52.6,98,85,65,29.80,29.65,13,2,16,0.16
2013-6-25,69.6,60.2,48.7,62.4,52.7,48.2,98,78,49,29.94,29.80,10,2,13,0.16
2013-6-26,73.6,64.0,55.8,59.2,53.9,48.5,98,72,45,30.15,29.94,10,2,13,0.00
2013-6-27,81.3,68.8,56.5,65.5,56.3,52.8,96,67,41,30.24,30.15,11,2,12,0.00
2013-6-28,89.8,73.2,57.2,64.3,57.4,52.8,94,62,31,30.27,30.09,12,3,14,0.08
2013-6-29,75.0,67.6,61.3,67.2,60.2,57.4,94,78,56,30.18,30.03,18,4,23,0.08
2013-6-30,91.8,74.7,59.0,67.8,58.4,50.2,98,63,25,30.12,30.03,11,2,13,0.00
2013-7-1,96.3,79.1,61.7,66.7,60.2,56.1,92,57,27,30.09,29.94,15,6,15,0.00
2013-7-2,94.6,79.7,64.2,70.8,63.6,58.0,90,62,31,30.06,29.94,8,2,13,0.00
2013-7-3,89.2,75.8,61.3,64.9,53.5,43.2,92,50,24,30.03,29.91,14,4,15,0.00
2013-7-4,83.5,69.7,53.8,54.4,47.8,41.4,87,50,26,29.97,29.85,14,4,17,0.00
2013-7-5,81.1,67.5,50.7,52.8,46.9,40.7,90,52,25,29.94,29.83,13,3,17,0.00
2013-7-6,86.9,68.5,50.9,54.1,49.4,45.2,89,56,26,29.94,29.85,9,1,13,0.00
2013-7-7,89.6,71.0,51.3,58.1,48.9,43.6,89,51,21,29.94,29.83,10,1,10,0.00
2013-7-8,83.7,66.0,53.4,64.1,51.8,45.2,87,63,29,30.12,29.85,13,1,16,0.12
2013-7-9,89.2,71.3,52.9,55.8,49.9,42.5,90,53,21,30.18,30.03,13,3,14,0.00
2013-7-10,90.9,73.6,54.3,55.1,49.4,39.9,85,48,21,30.03,29.80,13,4,16,0.00
2013-7-11,82.2,70.0,55.8,50.2,40.2,28.0,78,37,20,29.91,29.83,17,6,20,0.00
2013-7-12,81.7,64.1,48.7,46.8,38.3,33.4,71,42,21,29.97,29.88,12,3,15,0.00
2013-7-13,80.8,65.6,53.1,48.7,42.4,36.2,75,47,23,30.15,29.97,11,2,13,0.00
2013-7-14,87.3,67.9,45.1,49.8,43.8,37.0,91,49,20,30.15,29.94,10,2,11,0.00
2013-7-15,87.1,68.0,47.3,48.7,43.0,35.0,88,47,19,30.00,29.94,11,2,15,0.00
2013-7-16,90.1,72.7,49.6,52.6,46.5,41.4,82,44,23,30.03,29.88,19,6,22,0.00
2013-7-17,91.6,78.0,64.0,61.2,53.6,45.9,78,46,21,30.09,29.88,33,4,33,0.00
2013-7-18,91.8,74.5,57.2,57.2,49.4,40.2,85,48,18,30.18,30.06,9,2,12,0.00
2013-7-19,95.4,75.8,54.9,54.9,48.5,40.5,82,45,17,30.09,29.94,9,2,15,0.00
2013-7-20,95.4,75.2,55.2,54.2,46.3,36.0,82,43,15,29.97,29.83,17,3,19,0.00
2013-7-21,92.8,73.9,50.7,50.2,43.5,39.0,71,38,18,29.91,29.80,14,3,17,0.00
2013-7-22,92.8,74.6,54.1,50.9,46.5,40.1,74,42,18,29.94,29.83,16,3,17,0.00
2013-7-23,97.9,76.3,54.3,50.9,47.1,40.3,78,42,17,30.06,29.94,9,1,15,0.00
2013-7-24,98.1,76.8,54.5,52.9,47.7,40.7,79,42,16,30.03,29.94,9,1,12,0.00
2013-7-25,97.9,76.9,54.3,53.7,47.5,40.5,75,42,16,30.06,29.97,10,1,15,0.00
2013-7-26,96.6,76.4,52.5,49.7,44.1,36.3,73,38,16,30.09,29.94,13,2,17,0.00
2013-7-27,90.9,71.4,50.7,45.1,41.3,35.9,74,38,17,30.03,29.88,13,3,15,0.00
2013-7-28,87.4,69.3,49.1,46.5,42.3,37.2,70,42,20,29.94,29.85,10,2,14,0.00
2013-7-29,88.0,69.6,51.6,49.5,44.8,38.3,77,46,20,29.97,29.88,9,1,10,0.00
2013-7-30,90.7,72.8,57.2,50.6,45.5,38.7,70,43,18,30.12,29.97,13,3,13,0.00
2013-7-31,91.8,72.6,57.2,49.8,44.8,40.4,69,41,19,30.15,29.97,13,3,16,0.00
2013-8-1,78.3,65.1,58.1,58.9,50.4,43.4,98,61,35,30.00,29.91,11,2,11,0.63
2013-8-2,61.0,58.2,56.3,60.4,57.7,55.8,98,98,97,30.12,29.94,11,3,14,1.12
2013-8-3,77.0,64.6,56.8,63.5,55.5,47.8,98,76,39,30.15,30.06,8,1,11,0.04
2013-8-4,85.6,69.8,54.7,58.7,53.2,48.7,98,61,30,30.12,30.00,10,1,11,0.00
2013-8-5,90.0,72.6,57.4,59.5,53.1,46.2,90,55,23,30.03,29.91,10,3,13,0.00
2013-8-6,91.6,73.5,57.0,59.6,53.4,45.5,90,56,22,30.03,29.91,11,2,13,0.00
2013-8-7,92.5,74.2,58.3,58.6,51.2,40.5,86,52,18,30.00,29.88,9,2,13,0.00
2013-8-8,92.1,73.0,54.5,58.1,51.3,43.4,89,52,20,30.00,29.91,8,1,9,0.00
2013-8-9,94.5,77.5,60.4,60.6,54.2,50.4,82,49,27,29.94,29.85,15,4,20,0.71
2013-8-10,92.5,77.2,61.2,65.4,57.2,50.1,95,56,26,30.00,29.88,10,4,17,1.03
2013-8-11,90.7,77.2,64.2,59.1,55.5,52.0,72,49,31,30.03,29.91,10,2,11,0.00
2013-8-12,92.8,75.4,60.8,63.6,56.5,51.0,89,57,27,30.03,29.94,12,2,12,0.00
2013-8-13,91.0,73.1,59.7,63.0,54.2,42.6,89,58,21,30.12,30.00,8,1,8,0.00
2013-8-14,92.7,74.1,58.8,60.4,54.7,47.7,89,56,22,30.03,29.88,14,4,15,0.00
2013-8-15,93.2,74.3,57.9,60.5,54.4,46.2,91,56,21,30.00,29.91,8,1,8,0.00
2013-8-16,87.1,72.0,59.2,58.8,52.9,47.0,88,56,26,30.03,29.94,11,2,13,0.00
2013-8-17,86.7,72.4,56.1,60.6,51.9,44.8,91,53,28,30.06,29.94,15,3,20,0.00
2013-8-18,87.4,70.0,52.9,59.4,48.8,43.2,91,52,23,30.09,29.97,14,4,16,0.00
2013-8-19,86.7,70.3,52.2,53.7,47.1,43.3,86,49,23,30.06,29.94,16,4,17,0.00
2013-8-20,87.1,68.3,53.1,52.1,42.9,35.9,81,45,19,30.09,29.97,10,3,13,0.00
2013-8-21,89.4,67.9,47.3,50.7,43.4,38.9,80,47,19,30.12,29.97,13,2,14,0.00
2013-8-22,91.2,72.9,52.9,54.4,46.1,41.2,75,43,20,30.03,29.83,13,4,16,0.00
2013-8-23,81.5,70.9,59.5,58.2,51.1,42.8,82,52,32,29.88,29.83,10,2,14,0.00
2013-8-24,88.2,69.5,53.4,57.0,51.5,45.9,94,59,27,29.91,29.77,10,2,13,0.00
2013-8-25,86.7,70.0,57.9,63.7,54.4,47.0,98,64,29,29.97,29.80,16,2,21,0.04
2013-8-26,80.6,68.3,54.9,57.6,51.3,44.4,91,59,31,30.03,29.88,11,1,15,0.00
2013-8-27,88.0,69.2,51.6,55.2,49.9,45.7,93,56,25,30.03,29.85,8,1,10,0.00
2013-8-28,87.3,71.0,58.5,55.3,50.3,44.4,77,51,25,29.94,29.83,15,4,17,0.00
2013-8-29,83.3,67.1,56.8,62.5,53.0,47.0,83,63,29,30.06,29.91,14,2,61,0.00
2013-8-30,82.2,68.0,55.4,63.9,51.1,40.5,98,61,24,30.15,30.03,17,3,18,0.08
2013-8-31,87.4,67.2,49.3,54.4,46.1,38.9,90,54,20,30.12,29.94,12,3,15,0.00
2013-9-1,92.1,71.7,53.4,52.1,46.7,41.1,79,46,19,29.94,29.83,18,6,23,0.00
2013-9-2,72.3,65.5,61.2,63.2,56.2,49.3,92,72,57,30.00,29.85,12,3,14,0.04
2013-9-3,83.8,69.9,61.3,60.7,57.9,54.3,90,68,39,30.30,30.00,10,5,12,0.00
2013-9-4,93.2,73.6,60.6,64.2,57.8,53.0,97,62,27,31.24,29.97,19,4,26,0.12
2013-9-5,77.2,68.8,63.1,65.4,63.1,60.2,98,83,58,30.09,29.88,15,5,15,0.20
2013-9-6,66.2,61.1,55.9,62.6,56.1,51.3,98,84,59,30.15,29.94,13,4,17,0.28
2013-9-7,74.5,62.7,55.6,59.1,53.7,47.9,96,75,42,30.15,30.06,10,1,11,0.04
2013-9-8,70.9,61.0,54.1,59.6,54.1,48.4,98,81,46,30.12,30.00,11,2,11,0.00
2013-9-9,85.1,68.4,55.8,57.6,53.4,47.8,95,64,31,30.06,29.97,8,2,8,0.00
2013-9-10,88.5,70.3,54.9,59.0,53.8,47.9,94,61,28,30.09,30.00,11,2,13,0.00
2013-9-11,92.8,73.8,57.4,60.3,51.7,47.2,88,52,22,30.12,30.03,16,4,18,0.00
2013-9-12,95.5,74.6,60.6,56.7,51.0,43.4,79,48,19,30.06,29.91,15,3,17,0.00
2013-9-13,91.6,71.9,55.9,57.3,53.0,47.2,89,58,23,29.94,29.80,11,1,11,0.00
2013-9-14,92.3,73.3,59.9,58.2,49.7,40.0,81,50,20,29.94,29.85,15,4,15,0.00
2013-9-15,92.8,74.4,60.3,58.8,48.1,44.4,83,42,21,29.91,29.71,27,4,30,0.00
2013-9-16,70.3,62.2,53.4,60.3,53.4,44.7,91,74,42,29.94,29.80,13,3,17,0.00
2013-9-17,73.6,58.7,48.7,56.2,50.1,43.6,98,77,40,29.88,29.71,15,3,17,0.24
2013-9-18,66.4,55.6,49.1,52.5,47.0,37.9,98,76,36,30.12,29.80,15,3,20,0.00
2013-9-19,73.2,56.9,42.8,50.5,42.4,35.4,98,65,27,30.18,29.97,12,2,15,0.00
2013-9-20,78.8,61.7,48.2,45.7,43.2,41.2,85,55,27,29.97,29.62,17,7,19,0.00
2013-9-21,66.9,58.2,46.9,48.0,43.6,39.0,92,59,40,29.77,29.59,11,2,15,0.00
2013-9-22,62.4,53.0,42.6,51.0,44.7,37.7,98,76,44,29.80,29.71,19,6,22,0.04
2013-9-23,60.6,54.5,49.3,50.8,43.3,38.0,94,68,45,29.97,29.77,15,6,20,0.00
2013-9-24,61.3,53.0,49.5,52.3,44.3,36.7,98,74,45,29.94,29.80,15,1,15,0.16
2013-9-25,55.8,49.6,41.4,47.8,43.8,38.5,95,81,58,29.91,29.80,8,0,13,0.04
2013-9-26,66.2,51.2,41.4,45.6,37.3,29.0,97,64,29,30.06,29.91,13,2,15,0.00
2013-9-27,56.3,47.4,38.3,46.4,39.1,33.5,98,75,44,30.06,29.97,17,4,22,0.08
2013-9-28,60.1,53.6,46.9,54.0,48.6,43.2,98,85,54,29.97,29.53,20,6,27,0.44
2013-9-29,57.0,51.6,47.1,52.5,42.4,38.5,98,72,55,29.74,29.53,26,10,34,0.48
2013-9-30,58.3,51.2,44.4,49.3,38.3,34.2,94,63,43,29.94,29.47,28,12,30,0.04
2013-10-1,55.2,45.9,39.4,45.5,39.9,35.2,92,80,55,30.15,29.94,15,4,17,0.08
2013-10-2,58.1,47.4,38.7,40.7,36.2,31.5,96,67,40,30.18,30.06,11,2,14,0.00
2013-10-3,66.9,46.7,32.5,45.8,32.4,28.3,96,63,29,30.42,30.06,15,2,15,0.00
2013-10-4,63.9,45.5,32.7,36.7,31.6,26.1,94,64,28,30.50,30.42,8,3,10,0.00
2013-10-5,68.7,47.6,32.0,39.2,34.2,29.9,97,66,29,30.45,30.30,7,1,8,0.00
2013-10-6,70.0,50.6,36.9,40.7,37.5,33.9,93,66,32,30.30,29.97,10,4,13,0.00
2013-10-7,65.1,47.8,35.2,54.4,38.1,31.3,98,73,35,30.00,29.85,19,5,27,0.08
2013-10-8,51.3,44.7,39.4,43.4,39.6,34.2,97,83,62,30.06,29.91,13,6,17,0.12
2013-10-9,61.5,45.6,35.8,43.9,37.5,32.8,98,76,37,30.09,29.94,15,3,17,0.00
2013-10-10,54.0,45.2,34.3,45.5,38.6,31.8,97,80,50,30.03,29.88,10,2,11,0.00
2013-10-11,62.2,43.2,31.6,49.4,34.7,28.7,98,77,32,30.15,30.03,8,1,10,0.00
2013-10-12,61.7,46.1,36.1,39.7,33.5,29.9,85,65,34,30.15,30.06,11,3,13,0.00
2013-10-13,61.7,43.0,28.6,42.7,31.1,26.6,96,68,34,30.30,30.15,7,1,9,0.00
2013-10-14,64.2,42.3,28.2,44.0,30.2,26.7,98,69,27,30.42,30.30,11,2,14,0.00
2013-10-15,62.6,42.0,28.8,46.3,30.8,25.7,98,70,31,30.42,30.21,7,2,8,0.00
2013-10-16,64.8,46.7,35.6,41.3,35.2,31.8,92,69,31,30.21,30.12,6,1,8,0.00
2013-10-17,64.8,43.7,31.5,47.8,34.8,29.9,98,75,35,30.30,30.18,8,0,8,0.00
2013-10-18,62.2,44.0,31.1,47.7,35.1,29.6,98,76,35,30.33,30.18,9,1,10,0.00
2013-10-19,65.7,44.4,29.8,42.5,34.2,28.3,98,72,34,30.21,30.09,8,1,10,0.00
2013-10-20,67.3,45.7,29.8,46.5,35.9,28.3,98,74,35,30.18,30.12,6,1,8,0.00
2013-10-21,68.9,47.6,35.1,51.7,38.9,34.5,98,77,34,30.27,30.18,9,2,9,0.00
2013-10-22,66.0,47.6,37.4,51.3,41.2,36.6,98,82,43,30.24,30.15,10,4,10,0.00
2013-10-23,63.7,47.4,39.2,46.2,41.6,37.9,98,83,46,30.21,30.12,11,6,16,0.00
2013-10-24,66.7,49.0,36.9,44.8,41.6,34.8,98,80,40,30.18,30.09,13,4,14,0.00
2013-10-25,59.0,44.9,35.8,46.1,40.6,34.2,98,87,53,30.30,30.15,11,5,13,0.00
2013-10-26,60.1,44.6,36.1,43.7,40.2,35.2,98,87,49,30.33,30.09,13,4,14,0.00
2013-10-27,53.8,42.8,36.3,46.8,36.3,21.4,98,81,39,30.09,29.83,30,9,32,0.24
2013-10-28,50.4,40.2,35.1,32.2,20.5,14.6,89,47,32,30.03,29.91,27,14,32,0.04
2013-10-29,56.3,38.9,25.9,25.0,19.3,14.1,77,47,28,30.03,29.94,14,3,14,0.00
2013-10-30,53.2,34.9,21.2,28.3,23.1,17.4,88,65,34,30.09,30.00,7,1,8,0.00
2013-10-31,61.7,43.4,32.7,36.4,32.8,27.8,96,69,37,30.15,30.03,12,2,13,0.00
2013-11-1,61.0,40.9,29.1,43.0,34.2,27.5,98,80,41,30.27,30.03,8,1,10,0.00
2013-11-2,51.1,43.1,36.1,48.4,37.1,26.8,98,81,47,30.03,29.62,27,11,32,0.40
2013-11-3,42.8,36.1,29.5,36.9,30.3,24.1,98,80,55,30.00,29.80,21,6,23,0.04
2013-11-4,40.5,34.3,30.0,33.1,28.4,23.5,95,80,52,30.18,30.00,8,1,9,0.00
2013-11-5,36.1,33.0,27.1,34.5,31.4,24.5,98,94,84,30.18,30.12,9,1,10,0.08
2013-11-6,41.0,36.9,34.9,38.2,35.1,33.2,98,93,78,30.36,30.18,13,2,14,0.04
2013-11-7,44.2,39.3,36.1,43.7,37.7,32.4,98,94,80,30.27,29.77,17,8,20,0.36
2013-11-8,50.2,42.1,30.7,39.5,34.3,28.3,94,75,47,30.18,29.91,17,7,19,0.04
2013-11-9,47.5,38.6,29.3,40.6,34.0,28.8,98,85,56,30.21,30.15,14,4,14,0.00
2013-11-10,44.8,41.5,39.6,39.9,38.4,36.2,96,89,81,30.27,30.12,12,5,14,0.00
2013-11-11,51.4,43.9,39.9,36.9,35.7,34.0,83,73,56,30.36,30.24,21,12,24,0.00
2013-11-12,48.2,44.0,40.5,41.3,37.2,33.8,93,77,65,30.36,30.24,20,5,24,0.00
2013-11-13,48.4,43.7,41.9,43.9,39.5,35.8,98,85,65,30.36,30.27,14,3,14,0.00
2013-11-14,50.7,42.3,37.9,43.4,37.5,34.4,97,84,59,30.27,29.94,13,2,13,0.00
2013-11-15,41.0,36.6,33.1,36.5,33.9,30.8,98,90,69,29.94,29.35,24,9,24,0.40
2013-11-16,40.5,36.3,32.7,38.6,32.9,26.3,98,88,66,29.68,29.23,15,7,18,0.28
2013-11-17,45.9,39.2,30.7,36.1,29.6,24.9,84,69,54,29.94,29.68,16,6,21,0.08
2013-11-18,49.6,46.0,42.6,39.6,31.4,26.9,83,57,41,29.94,29.71,22,6,24,0.00
2013-11-19,56.8,48.1,37.2,40.8,34.9,22.9,86,61,43,29.80,29.62,26,10,28,0.04
2013-11-20,44.8,30.5,16.0,28.2,9.1,2.8,71,42,28,30.42,29.83,11,3,12,0.00
2013-11-21,44.2,25.0,15.1,16.6,10.5,6.3,80,56,30,30.65,30.42,10,2,13,0.00
2013-11-22,43.0,25.8,14.5,18.9,13.5,8.8,83,62,35,30.71,30.59,9,2,10,0.00
2013-11-23,41.2,29.4,22.1,18.0,15.2,10.9,73,56,38,30.59,30.33,17,6,17,0.00
2013-11-24,46.9,29.7,18.3,24.1,19.1,13.9,85,67,38,30.36,30.27,8,1,10,0.00
2013-11-25,42.4,31.8,23.2,28.4,23.1,19.2,89,71,49,30.42,30.36,9,4,10,0.00
2013-11-26,44.6,31.4,24.6,29.3,23.3,20.0,90,74,45,30.36,30.18,9,4,11,0.00
2013-11-27,42.8,31.5,23.9,30.7,25.4,20.1,96,79,51,30.21,30.12,13,5,15,0.00
2013-11-28,46.8,30.2,23.9,33.3,24.4,20.1,94,81,47,30.21,30.12,10,4,13,0.00
2013-11-29,32.9,30.1,25.9,32.4,29.5,24.8,98,98,94,30.27,30.21,6,1,8,0.00
2013-11-30,37.4,34.7,32.0,36.9,34.2,31.5,98,98,98,30.27,30.15,4,0,6,0.12
2013-12-1,47.3,41.6,35.4,44.4,39.2,34.9,98,91,80,30.15,29.65,17,5,22,0.88
2013-12-2,46.6,35.0,26.1,40.9,22.8,11.8,87,62,42,29.97,29.62,28,8,28,0.00
2013-12-3,33.1,23.9,14.7,12.2,4.1,-1.0,54,42,32,30.24,29.97,26,10,27,0.00
2013-12-4,32.7,18.2,10.6,8.2,1.1,-4.0,65,48,32,30.27,30.21,8,2,11,0.00
2013-12-5,28.0,17.3,10.0,11.5,5.2,-0.7,74,59,42,30.24,30.21,7,1,8,0.00
2013-12-6,21.4,12.8,7.7,2.9,-4.0,-12.6,61,47,36,30.24,30.18,23,12,26,0.00
2013-12-7,22.6,8.5,-1.5,-2.8,-13.2,-23.0,38,36,32,30.30,30.15,20,7,24,0.00
2013-12-8,24.6,9.9,-2.6,4.7,-10.6,-24.0,54,38,34,30.45,30.30,8,0,9,0.00
2013-12-9,22.3,18.5,12.2,13.0,4.0,-7.5,70,53,40,30.45,30.30,8,1,8,0.00
2013-12-10,36.5,24.4,18.3,17.5,13.3,8.4,79,63,42,30.42,30.27,8,1,9,0.00
2013-12-11,39.2,28.8,23.4,22.6,18.4,14.0,78,65,46,30.42,30.30,8,1,9,0.00
2013-12-12,34.9,28.7,22.5,30.2,23.8,18.5,95,82,66,30.30,30.09,6,1,8,0.00
2013-12-13,34.5,33.2,31.3,32.8,30.9,28.9,98,91,85,30.39,30.12,9,1,10,0.04
2013-12-14,40.1,35.5,29.8,39.6,35.0,29.3,98,98,98,30.39,30.27,8,1,10,0.04
2013-12-15,52.3,35.6,27.7,42.7,32.4,27.2,98,89,52,30.30,30.21,13,2,13,0.00
2013-12-16,46.8,37.8,29.3,36.8,32.7,27.5,98,83,56,30.39,30.30,13,4,15,0.00
2013-12-17,54.1,35.9,27.7,34.1,28.6,24.5,98,77,40,30.30,29.97,8,1,8,0.00
2013-12-18,38.3,32.0,26.4,35.7,28.2,21.9,97,86,75,29.97,29.85,10,3,11,0.00
2013-12-19,38.5,27.7,21.9,27.5,13.8,9.4,91,56,40,30.18,29.94,10,4,12,0.00
2013-12-20,27.3,25.2,20.8,25.4,18.0,8.8,94,75,55,30.09,29.65,8,2,9,0.00
2013-12-21,31.5,28.7,26.2,28.4,25.4,23.1,93,87,79,30.09,29.77,6,0,6,0.00
2013-12-22,37.4,32.6,30.0,33.7,30.4,27.6,98,92,72,30.27,30.09,3,0,5,0.00
2013-12-23,42.8,36.6,32.0,42.0,35.1,28.0,98,94,82,30.30,30.00,19,5,24,0.84
2013-12-24,46.2,30.8,22.1,30.1,25.0,20.1,96,81,48,30.50,30.30,10,1,13,0.00
2013-12-25,37.2,27.3,20.3,34.1,25.1,18.9,97,92,70,30.50,30.39,5,0,6,0.00
2013-12-26,42.6,29.8,23.2,33.4,25.9,20.4,96,86,58,30.39,30.30,5,0,5,0.00
2013-12-27,37.6,29.2,20.8,31.9,25.3,18.4,92,86,64,30.30,30.03,12,2,15,0.00
2013-12-28,32.0,29.5,27.5,29.7,27.0,25.4,98,90,81,30.45,30.21,10,2,11,0.00
2013-12-29,34.7,28.8,22.3,31.5,26.4,19.9,95,91,88,30.42,30.21,6,0,8,0.00
2013-12-30,34.0,29.0,20.7,32.4,27.1,18.2,98,93,85,30.27,30.09,6,1,6,0.00
2013-12-31,36.5,33.0,27.7,36.0,32.3,27.2,98,97,94,30.33,30.06,5,0,6,0.04
2014-1-1,43.0,33.1,28.8,34.9,30.3,25.2,98,90,67,30.42,30.33,8,1,9,0.00
2014-1-2,46.8,35.9,30.2,35.5,31.8,28.3,98,86,50,30.33,29.77,23,2,26,0.00